Location: Ferma
(41.9500°N, 44.5167°E)
Time: 19:02:14
(UTC+00:00)

FENGYUN 1C DEB - Pass Details

Date: 15 August 2022
Orbit: 606 x 930 km, 99.7° (Epoch: 01 October)

Event Time Altitude Azimuth Distance (km) Brightness Sun altitude
Exits shadow 17:30:59 24° 135° (SE) 1,558 ? -15.4°
Maximum altitude 17:33:52 52° 69° (ENE) 987 ? -15.8°
Drops below altitude 10° 17:39:12 10° 354° (N) 2,486 ? -16.6°
Sets 17:41:43 0° 350° (N) 3,470 ? -17.0°
